Vorticity
-0 10 2 11 25 23 19 20 18 13 22 20 26 20 19 13 11 13 18 20 16 12 10 12 10 8 7 6 12 15 12 15 13 11 9 5 3 3 4 6 5 5 4 2
11 0 7 7 2 5 14 11 9 7 11 11 5 6 3 4 4 6 5 6 7 9 13 10 10 9 12 11 11 14 10 4 3 2 1 -1 1 4 8 3 2 1 1 1
6 10 6 5 8 5 3 6 7 7 7 6 9 9 13 12 14 12 11 12 13 10 10 11 11 8 7 9 6 3 1 -0 1 3 4 8 11 14 15 12 6 5 11 11
3 5 6 8 8 2 1 2 3 3 3 4 4 4 7 6 7 7 8 9 7 7 10 8 7 6 3 -1 -1 1 2 5 3 4 17 21 20 17 17 19 18 16 11 7
5 3 4 5 2 9 12 12 7 6 3 3 2 3 2 3 3 4 3 3 3 3 2 3 3 2 1 1 2 4 3 8 20 23 11 10 6 5 5 4 4 4 5 5
4 5 4 3 4 2 4 5 7 12 16 13 6 4 3 3 3 3 2 1 2 3 3 2 2 3 3 6 16 17 23 8 4 7 6 6 3 2 6 6 5 6 6 7
3 4 5 5 5 4 5 3 4 5 5 6 8 10 12 13 15 15 16 16 17 18 22 21 17 19 11 6 4 4 6 5 6 7 5 8 7 7 7 7 6 6 5 7
9 3 5 5 5 5 5 7 6 5 5 4 5 6 6 6 7 6 6 7 7 8 7 7 8 8 8 8 9 10 10 12 9 10 11 7 6 9 10 10 8 9 10 8
11 17 4 4 5 4 5 4 3 4 6 5 4 5 7 8 9 8 9 8 10 9 11 11 10 9 10 7 10 10 10 10 12 11 9 13 9 9 9 8 9 8 8 8
5 6 17 8 4 4 5 4 4 4 4 4 4 4 4 4 6 5 5 5 6 7 6 6 7 7 8 6 8 8 9 8 7 6 9 5 3 5 4 7 3 3 5 6
1 6 3 12 15 7 5 3 4 3 4 4 7 5 5 4 4 4 6 3 5 3 3 4 4 3 4 4 6 4 7 7 7 4 1 3 7 8 6 9 10 10 10 10
1 3 1 6 3 12 15 9 9 3 3 3 5 4 1 7 5 5 5 7 6 6 7 6 4 4 5 5 5 1 4 3 3 -1 6 2 7 8 6 17 15 11 13 10
19 5 1 0 2 5 1 8 16 15 11 4 3 2 2 5 3 4 5 3 4 3 3 3 4 2 2 5 4 4 3 2 4 5 -4 1 -0 4 10 16 10 7 9 14
8 12 14 10 6 4 2 7 5 3 10 20 22 14 7 6 9 6 -1 -2 2 2 3 3 2 2 2 3 4 1 3 -0 4 3 2 1 2 1 9 12 11 5 7 9
5 6 8 11 14 13 10 0 -0 2 5 5 10 12 17 22 21 15 11 7 4 3 3 2 3 5 1 4 5 3 2 1 0 1 -0 1 1 5 17 15 9 6 0 13
13 6 1 8 5 5 2 12 13 12 8 6 9 12 13 5 4 10 16 20 21 20 21 24 25 23 20 18 32 26 14 5 11 8 9 9 13 18 18 14 10 5 1 11
0 7 8 3 3 4 2 -1 2 3 7 8 7 8 8 9 7 10 9 6 4 4 7 10 10 13 13 17 21 5 8 27 29 24 20 20 18 18 15 7 10 3 4 9
2 4 4 3 5 5 2 6 1 -0 -1 -0 3 -5 2 5 1 1 -0 5 10 6 8 5 2 5 13 1 8 14 16 12 13 17 19 19 13 15 16 8 9 8 11 9
12 10 5 5 3 2 6 2 2 3 2 2 -0 -3 -2 -1 3 5 4 5 3 -0 8 8 9 8 4 1 7 7 9 5 13 17 17 24 24 12 7 5 5 6 7 8
-3 -4 8 9 5 4 4 3 1 0 1 3 -5 -0 9 4 2 -2 1 6 2 7 2 4 8 36 10 9 3 2 3 3 1 8 14 15 9 6 3 4 5 7 7 5
12 -1 6 -2 6 6 8 5 4 3 3 -1 -4 -8 -2 1 8 9 6 4 4 3 2 5 3 13 10 14 13 11 10 6 8 2 9 9 7 6 6 6 7 9 8 6
2 4 10 5 -0 -7 -2 14 5 5 6 7 4 2 3 0 6 7 8 13 6 7 2 -2 3 2 7 17 14 11 11 13 9 10 10 9 7 7 8 9 9 10 5 4
20 20 14 10 6 8 5 10 22 6 9 10 10 9 4 6 1 7 5 7 9 14 7 9 1 4 20 -3 9 11 12 13 12 6 6 10 10 11 10 8 7 6 1 6
21 20 15 13 10 16 22 26 15 11 14 14 13 9 7 13 18 24 18 8 14 14 7 34 23 16 7 15 5 9 11 6 7 8 13 9 10 7 8 8 4 4 6 15
10 13 2 6 19 16 15 14 13 11 15 13 15 23 7 8 3 3 4 13 7 16 30 11 9 10 7 5 10 6 3 7 7 8 8 6 10 9 8 8 10 13 12 13
9 9 19 23 20 17 16 13 18 16 16 16 14 16 20 13 12 18 11 5 32 17 12 15 11 11 6 7 12 12 7 3 5 5 7 9 13 10 6 6 11 10 9 13
9 21 15 19 20 13 13 12 15 14 14 15 21 19 14 7 5 3 2 22 20 14 10 11 12 11 16 13 11 10 8 8 10 14 12 14 16 13 9 8 8 6 10 14
Height
5719 5712 5705 5699 5693 5687 5683 5682 5677 5667 5666 5667 5670 5668 5667 5666 5667 5669 5670 5672 5674 5676 5677 5679 5681 5683 5686 5687 5689 5691 5692 5694 5695 5696 5697 5697 5696 5695 5694 5692 5692 5690 5688 5688
5728 5723 5717 5710 5705 5699 5694 5694 5689 5681 5676 5682 5680 5679 5678 5678 5677 5678 5679 5680 5681 5682 5684 5686 5687 5689 5690 5691 5693 5695 5696 5697 5698 5698 5699 5698 5696 5694 5693 5692 5690 5689 5687 5686
5737 5729 5725 5721 5715 5712 5705 5703 5700 5696 5693 5692 5691 5690 5689 5689 5688 5689 5689 5689 5689 5689 5690 5691 5693 5694 5696 5697 5698 5699 5699 5699 5699 5699 5697 5696 5693 5692 5691 5689 5688 5687 5686 5684
5742 5738 5731 5727 5724 5719 5716 5712 5710 5707 5705 5703 5700 5700 5698 5697 5697 5697 5697 5697 5698 5698 5698 5698 5698 5699 5700 5701 5701 5701 5700 5699 5698 5696 5694 5693 5691 5690 5689 5688 5687 5686 5684 5683
5746 5743 5739 5735 5729 5727 5723 5720 5718 5714 5713 5711 5709 5708 5707 5706 5705 5704 5704 5703 5703 5703 5704 5704 5703 5704 5703 5703 5702 5701 5700 5699 5697 5696 5695 5694 5693 5691 5690 5689 5687 5686 5684 5683
5750 5746 5742 5739 5736 5731 5729 5728 5724 5722 5720 5718 5716 5714 5713 5712 5711 5711 5710 5709 5709 5708 5707 5706 5706 5705 5705 5704 5703 5701 5700 5699 5698 5697 5695 5695 5695 5692 5691 5689 5688 5686 5684 5682
5751 5749 5745 5742 5739 5737 5734 5730 5730 5728 5727 5724 5722 5720 5718 5717 5716 5714 5713 5712 5711 5712 5710 5709 5708 5708 5707 5706 5705 5704 5703 5701 5700 5699 5697 5697 5695 5693 5691 5690 5688 5685 5683 5680
5750 5749 5747 5744 5741 5739 5737 5735 5732 5731 5729 5728 5727 5726 5723 5720 5719 5719 5718 5717 5716 5715 5714 5713 5712 5711 5710 5708 5707 5706 5704 5703 5701 5700 5698 5697 5695 5693 5691 5689 5687 5684 5681 5678
5747 5746 5745 5744 5742 5740 5738 5737 5735 5733 5730 5730 5729 5728 5727 5726 5724 5721 5720 5719 5719 5718 5717 5716 5714 5713 5711 5710 5709 5707 5706 5704 5702 5700 5697 5695 5694 5691 5688 5686 5684 5680 5677 5673
5745 5743 5741 5741 5741 5739 5737 5736 5735 5734 5733 5732 5729 5728 5728 5728 5726 5725 5724 5721 5720 5719 5717 5716 5715 5713 5712 5710 5709 5707 5705 5703 5701 5698 5696 5695 5691 5688 5685 5683 5683 5676 5672 5669
5743 5741 5738 5737 5736 5736 5735 5733 5733 5733 5733 5731 5730 5729 5728 5727 5727 5726 5726 5724 5720 5718 5716 5716 5714 5713 5711 5710 5708 5706 5704 5701 5698 5696 5693 5692 5688 5685 5681 5678 5674 5670 5666 5662
5740 5738 5738 5736 5733 5732 5732 5730 5728 5727 5728 5730 5729 5728 5727 5725 5723 5723 5723 5723 5721 5719 5717 5714 5712 5710 5709 5708 5706 5703 5702 5699 5696 5693 5689 5686 5683 5679 5675 5672 5667 5663 5659 5655
5733 5734 5733 5733 5732 5729 5728 5727 5725 5723 5722 5723 5724 5724 5724 5722 5722 5720 5719 5717 5717 5716 5715 5713 5710 5707 5705 5704 5703 5700 5696 5692 5691 5689 5685 5681 5678 5674 5670 5666 5662 5658 5655 5651
5728 5727 5728 5728 5728 5727 5725 5723 5722 5721 5720 5718 5718 5717 5717 5716 5715 5714 5713 5712 5710 5709 5708 5707 5706 5703 5701 5699 5697 5695 5688 5684 5683 5684 5679 5674 5671 5668 5663 5660 5657 5654 5651 5647
5719 5720 5720 5721 5722 5720 5720 5719 5718 5716 5716 5715 5714 5711 5709 5709 5708 5706 5705 5704 5702 5701 5700 5699 5699 5697 5691 5691 5691 5692 5680 5674 5672 5672 5669 5666 5664 5662 5659 5655 5652 5649 5646 5642
5711 5710 5712 5712 5712 5714 5712 5713 5712 5711 5710 5710 5709 5708 5704 5701 5700 5699 5697 5695 5693 5691 5690 5690 5689 5687 5682 5678 5681 5682 5676 5664 5660 5662 5662 5659 5657 5655 5652 5648 5645 5642 5638 5636
5700 5702 5702 5703 5703 5704 5704 5703 5704 5702 5701 5703 5704 5703 5700 5696 5693 5691 5689 5687 5685 5683 5682 5682 5679 5678 5673 5674 5670 5664 5662 5659 5656 5654 5653 5651 5648 5646 5643 5641 5638 5635 5632 5628
5688 5691 5691 5693 5694 5694 5694 5692 5693 5692 5691 5692 5694 5696 5694 5691 5688 5684 5680 5678 5677 5676 5673 5674 5672 5671 5667 5664 5663 5660 5657 5653 5648 5643 5641 5640 5639 5636 5635 5634 5632 5629 5626 5622
5677 5678 5680 5681 5683 5684 5683 5682 5680 5680 5682 5679 5686 5688 5682 5683 5679 5676 5674 5671 5668 5665 5666 5665 5663 5665 5659 5659 5656 5652 5650 5646 5641 5636 5631 5629 5628 5627 5625 5624 5622 5619 5616 5613
5661 5663 5665 5667 5668 5669 5672 5672 5671 5669 5668 5667 5671 5673 5673 5671 5667 5665 5665 5660 5659 5656 5657 5653 5654 5656 5649 5647 5646 5644 5641 5638 5634 5630 5626 5623 5620 5618 5616 5614 5611 5608 5605 5601
5641 5644 5646 5649 5651 5654 5656 5658 5659 5657 5656 5657 5656 5655 5655 5654 5654 5652 5649 5647 5646 5644 5646 5644 5643 5646 5639 5635 5634 5632 5630 5628 5626 5623 5621 5617 5614 5611 5607 5603 5600 5597 5595 5591
5620 5623 5624 5628 5631 5636 5638 5643 5643 5643 5641 5641 5639 5637 5635 5635 5634 5633 5633 5633 5633 5632 5631 5630 5631 5632 5626 5624 5621 5619 5617 5616 5615 5613 5610 5608 5603 5600 5597 5594 5590 5587 5584 5581
5593 5595 5599 5608 5612 5617 5622 5623 5622 5620 5617 5619 5619 5619 5618 5617 5615 5614 5614 5612 5615 5616 5617 5618 5621 5615 5613 5611 5609 5607 5605 5604 5604 5603 5601 5599 5594 5590 5586 5582 5579 5576 5574 5571
5570 5571 5575 5583 5593 5597 5601 5603 5600 5599 5596 5595 5597 5597 5598 5596 5595 5594 5594 5594 5596 5596 5600 5605 5602 5600 5599 5597 5597 5596 5592 5590 5590 5589 5588 5586 5583 5579 5575 5571 5567 5564 5563 5560
5547 5546 5553 5574 5577 5577 5577 5577 5579 5578 5576 5575 5575 5574 5576 5577 5576 5575 5576 5576 5580 5585 5589 5588 5585 5582 5582 5581 5580 5580 5579 5578 5576 5575 5574 5572 5570 5567 5563 5559 5556 5553 5550 5548
5525 5525 5544 5556 5556 5560 5560 5559 5557 5554 5553 5553 5553 5553 5553 5554 5553 5556 5559 5558 5568 5576 5571 5568 5566 5564 5563 5564 5564 5563 5564 5564 5563 5561 5559 5557 5555 5553 5551 5548 5547 5543 5540 5535
5505 5523 5532 5535 5536 5541 5539 5537 5535 5533 5530 5534 5533 5534 5537 5533 5532 5538 5543 5551 5556 5555 5553 5549 5546 5546 5547 5547 5545 5547 5548 5549 5549 5549 5548 5545 5542 5539 5537 5535 5533 5531 5529 5525